Printer-friendly version

IAU Minor Planet Center

Minor Planet Center

MPEC 2007-V06 : 2007 US65

The following Minor Planet Electronic Circular may be linked-to from your own Web pages, but must not otherwise be redistributed electronically.

A form allowing access to any MPEC is at the bottom of this page.


Read MPEC 2007-V05 Read MPEC 2007-V07


M.P.E.C. 2007-V06                                Issued 2007 Nov. 2, 17:46 UT

     The Minor Planet Electronic Circulars contain information on unusual
         minor planets and routine data on comets.  They are published
   on behalf of Commission 20 of the International Astronomical Union by the
          Minor Planet Center, Smithsonian Astrophysical Observatory,
                          Cambridge, MA 02138, U.S.A.

             Prepared using the Tamkin Foundation Computer Network

                              MPC@CFA.HARVARD.EDU
          URL http://www.cfa.harvard.edu/iau/mpc.html  ISSN 1523-6714

                                   2007 US65

Observations:
     K07U65S  C2007 10 30.35910 02 56 57.48 +15 44 09.7          21.6 V EV006G96
     K07U65S  C2007 10 30.37306 02 56 56.36 +15 44 04.1          21.1 V EV006G96
     K07U65S  C2007 10 30.38691 02 56 55.28 +15 43 59.0          22.1 V EV006G96
     K07U65S  C2007 10 30.40080 02 56 54.16 +15 43 53.5          21.7 V EV006G96
     K07U65S* C2007 10 30.47187 02 56 48.58 +15 43 27.3          20.7 V EV006G96
     K07U65S  C2007 10 30.47382 02 56 48.37 +15 43 26.8          20.8 V EV006G96
     K07U65S  C2007 10 30.47574 02 56 48.26 +15 43 25.7          21.7 V EV006G96
     K07U65S  C2007 10 30.47767 02 56 48.12 +15 43 24.9          20.3 V EV006G96
     K07U65S  C2007 10 30.91411 02 56 15.81 +15 40 41.6          21.5 R EV006J95
     K07U65S  C2007 10 30.96042 02 56 12.19 +15 40 24.2          21.3 R EV006J95
     K07U65S  C2007 11 01.21795 02 54 37.35 +15 32 46.5                 EV006291
     K07U65S  C2007 11 01.22180 02 54 37.06 +15 32 44.8                 EV006291
     K07U65S HC2007 11 01.22565 02 54 36.69 +15 32 44.7                 EV006291
     K07U65S  C2007 11 01.23359702 54 35.93 +15 32 39.7          21.6 V EV006H55
     K07U65S  C2007 11 01.24296202 54 35.15 +15 32 36.5          21.7 V EV006H55
     K07U65S  C2007 11 01.25319102 54 34.33 +15 32 31.7          21.5 V EV006H55
     K07U65S FC2007 11 01.86752 02 53 48.42 +15 28 47.5                 EV006246
     K07U65S FC2007 11 01.87339 02 53 48.14 +15 28 45.3                 EV006246
     K07U65S FC2007 11 01.87435 02 53 48.09 +15 28 44.8                 EV006246
     K07U65S  C2007 11 02.05351 02 53 34.16 +15 27 39.2          21.0 R EV006J95
     K07U65S  C2007 11 02.08128 02 53 32.02 +15 27 27.9          21.0 R EV006J95
     K07U65S  C2007 11 02.30441 02 53 15.50 +15 26 10.1          21.2 V EV006G96
     K07U65S  C2007 11 02.31263 02 53 14.85 +15 26 06.8          21.5 V EV006G96
     K07U65S  C2007 11 02.32086 02 53 14.24 +15 26 03.5          21.4 V EV006G96
     K07U65S  C2007 11 02.32901 02 53 13.56 +15 26 00.7          21.5 V EV006G96
     K07U65S HC2007 11 02.44930 02 53 04.16 +15 25 17.0                 EV006291
     K07U65S  C2007 11 02.45324 02 53 03.85 +15 25 15.0                 EV006291

Observer details:
246 Klet Observatory-KLENOT.  Observer M. Tichy.  1.06-m KLENOT Telescope
    + CCD.
291 LPL/Spacewatch II.  Observer T. H. Bressi.  1.8-m f/2.7 reflector + CCD.
G96 Mt. Lemmon Survey.  Observers R. A. Kowalski, A. Boattini.  Measurers
    E. C. Beshore, A. Boattini, G. J. Garradd, A. R. Gibbs, A. D. Grauer,
    R. E. Hill, R. A. Kowalski, S. M. Larson, R. H. McNaught.  1.5-m reflector
    + CCD.
H55 Astronomical Research Observatory, Charleston.  Observer R. Holmes.
    0.81-m f/4.0 astrograph + CCD.
J95 Great Shefford.  Observer P. Birtwhistle.  0.40-m f/6.0 Schmidt-Cassegrain
    + CCD.

Orbital elements:
2007 US65                                                Earth MOID = 0.2521 AU
Epoch 2007 Oct. 27.0 TT = JDT 2454400.5                 MPC
M  28.79251              (2000.0)            P               Q
n   0.22986667     Peri.  124.76191     +0.73005981     +0.68337347
a   2.6392795      Node   192.13169     -0.63254001     +0.67370912
e   0.5218108      Incl.    0.99686     -0.25866157     +0.28127695
P   4.29           H   20.0           G   0.15           U   8
Residuals in seconds of arc
071030 G96  0.1+  0.5+    071030 J95  0.4+  0.7-    071101 246 (2.5+  0.9+)
071030 G96  0.0   0.1+    071101 291  0.0   0.2+    071102 J95  0.7+  0.8+
071030 G96  0.3+  0.1+    071101 291  0.1+  0.2-    071102 J95  0.9+  0.3-
071030 G96  0.0   0.2-    071101 291  0.8-  1.1+    071102 G96  0.2+  0.1-
071030 G96  0.3+  0.5+    071101 H55  0.7+  0.1-    071102 G96  0.1+  0.4-
071030 G96  0.5-  0.7+    071101 H55  0.1+  0.1+    071102 G96  0.6+  0.7-
071030 G96  0.1+  0.4+    071101 H55  0.1-  0.9-    071102 G96  0.0   0.5-
071030 G96  0.3+  0.3+    071101 246 (0.4-  1.2+)   071102 291  0.2-  0.2+
071030 J95  0.4+  0.0     071101 246 (2.2+  1.1+)   071102 291  0.3-  0.3-

Ephemeris:
2007 US65                a,e,i = 2.61, 0.52, 1                   q = 1.2646
Date    TT    R. A. (2000) Decl.     Delta      r     Elong.  Phase     V
2007 10 27    03 01.22   +16 04.8    0.814    1.794   165.6     7.9    21.5
2007 10 28    02 59.95   +15 58.7    0.818    1.800   166.9     7.2    21.5
2007 10 29    02 58.68   +15 52.6    0.823    1.806   168.2     6.5    21.5
2007 10 30    02 57.42   +15 46.4    0.827    1.813   169.5     5.7    21.4
2007 10 31    02 56.15   +15 40.3    0.832    1.819   170.8     5.0    21.4
2007 11 01    02 54.89   +15 34.2    0.837    1.826   172.1     4.3    21.4
2007 11 02    02 53.64   +15 28.1    0.843    1.832   173.4     3.6    21.4
2007 11 03    02 52.39   +15 22.0    0.848    1.838   174.7     2.8    21.4
2007 11 04    02 51.16   +15 16.0    0.854    1.845   176.0     2.1    21.3
2007 11 05    02 49.94   +15 10.0    0.860    1.851   177.2     1.5    21.3
2007 11 06    02 48.74   +15 04.2    0.866    1.857   178.3     0.9    21.3
2007 11 07    02 47.55   +14 58.3    0.873    1.864   178.9     0.6    21.3
2007 11 08    02 46.38   +14 52.6    0.880    1.870   178.2     0.9    21.3
2007 11 09    02 45.23   +14 47.0    0.887    1.877   177.1     1.5    21.4
2007 11 10    02 44.10   +14 41.4    0.894    1.883   175.9     2.2    21.5
2007 11 11    02 42.99   +14 36.0    0.901    1.889   174.6     2.8    21.6
2007 11 12    02 41.91   +14 30.7    0.909    1.896   173.4     3.5    21.6
2007 11 13    02 40.86   +14 25.5    0.917    1.902   172.1     4.1    21.7
2007 11 14    02 39.84   +14 20.4    0.925    1.909   170.8     4.7    21.7
2007 11 15    02 38.84   +14 15.5    0.934    1.915   169.6     5.4    21.8
2007 11 16    02 37.87   +14 10.8    0.942    1.921   168.3     6.0    21.9

Timothy B. Spahr             (C) Copyright 2007 MPC           M.P.E.C. 2007-V06

Read MPEC 2007-V05 Read MPEC 2007-V07


MPEC number:

Enter an
MPEC number in one of the following forms:
  • 1997-B01 (the full form)
  • J97B01 (the packed version of the full form)
  • B01 (the abbreviated form)

Valid HTML 4.01!